Weather in Proletarsky

Russia / Belgorod Oblast     50°47′34″N   35°46′19″E
temp.,
°C
wind,
m/s
gust,
m/s
humid.,
%
clouds,
%
prec.,
mm/h
press.,
hPa
HPBL,
m
2 december, thu
thu200:00−3wnw59765 0.1 1004521
03:00−3w48815 0.1 1006515
06:00−3wsw37858 0.0 1008354
09:00−3ssw498485 0.0 1009381
12:00−1s71466100 0.0 1008541
15:00+1ssw8167298 0.0 1006660
18:00+2ssw71680100 0.0 1006506
21:00+2ssw51492100 0.0 1006429
3 december, fri
fri300:00+3ssw61295100 0.0 1007388
03:00+1ssw41194100 0.0 1007264
06:00+2ssw51298100 0.0 1007292
09:00+5ssw51395100 0.0 1008420
12:00+6ssw81486100 0.0 1006617
15:00+7ssw81483100 0.1 1005821
18:00+7s81675100 0.1 1005625
21:00+7ssw81784100 0.1 1004600
4 december, sat
sat400:00+6w71095100 0.3 1005651
03:00+1nw5894100 0.6 1010524
06:00+1wnw4783100 0.1 1011504
09:000wnw3784100 0.1 1014376
12:00+1wnw4665100 0.0 1014440
15:00+1wnw355914 0.0 1015526
18:00−1nw22805 0.0 101630
21:00−1nne11825 0.0 101611
5 december, sun
sun500:00−1e228299 0.0 101750
03:00−1e2380100 0.0 101779
06:00−1ese3679100 0.0 1017188
09:00−2e36795 0.0 1018199
12:00+1ese596030 0.0 1017410
15:00+1ese5958100 0.0 1016423
18:000ese61264100 0.0 1016334
21:000ese51164100 0.0 1016332
6 december, mon
mon600:00+1se51176100 0.0 1016318
03:00+1se51092100 0.1 1016284
06:00+2se4998100 0.8 1015247
09:00+2se4799100 2.0 1016165
12:00+3se4799100 0.0 1016194
15:00+4ese3499100 0.1 101690
18:00+4se4899100 0.1 1017173
21:00+6se41099100 0.3 1016228